1994-01-01 03:00:00,1.6,1.6,16.3,1.4
1994-01-01 06:00:00,1.7,1.7,16.1,1.4
1994-01-01 09:00:00,1.3,1.3,15.1,1.5
1994-01-01 12:00:00,1.0,1.0,14.2,1.4
1994-01-01 15:00:00,1.3,1.3,14.6,1.3
1994-01-01 18:00:00,2.1,2.1,15.4,1.2
1994-01-01 21:00:00,3.3,3.3,16.1,0.9
1994-01-02 00:00:00,3.8,3.8,15.9,0.9
1994-01-02 03:00:00,2.9,2.9,16.6,0.9
1994-01-02 06:00:00,3.1,3.1,16.9,1.0
1994-01-02 09:00:00,6.1,6.1,17.5,1.0
1994-01-02 12:00:00,7.8,7.8,17.3,1.1
1994-01-02 15:00:00,8.7,8.7,16.7,1.0
1994-01-02 18:00:00,6.5,6.5,16.5,0.9
1994-01-02 21:00:00,4.1,4.1,16.6,0.9
1994-01-03 00:00:00,3.5,3.5,16.6,0.9
1994-01-03 03:00:00,3.3,3.3,16.9,0.8
1994-01-03 06:00:00,3.5,3.5,17.2,1.3
1994-01-03 09:00:00,4.8,4.8,17.2,1.3
1994-01-03 12:00:00,9.4,9.4,17.1,1.5
1994-01-03 15:00:00,6.5,6.5,16.7,1.2
1994-01-03 18:00:00,3.9,3.9,16.9,0.9
1994-01-03 21:00:00,2.9,2.9,17.2,1.0
1994-01-04 00:00:00,3.3,3.3,17.6,0.9
1994-01-04 03:00:00,3.4,3.4,17.8,1.0
1994-01-04 06:00:00,3.9,3.9,17.8,1.2
1994-01-04 09:00:00,3.5,3.5,17.2,0.8
1994-01-04 12:00:00,6.6,6.6,17.4,1.0
1994-01-04 15:00:00,6.4,6.4,17.4,1.1
1994-01-04 18:00:00,6.1,6.1,17.0,0.8
1994-01-04 21:00:00,6.7,6.7,17.1,0.8
1994-01-05 00:00:00,4.5,4.5,17.2,0.9
1994-01-05 03:00:00,2.5,2.5,16.6,1.0
1994-01-05 06:00:00,3.7,3.7,16.5,0.8
1994-01-05 09:00:00,3.1,3.1,16.2,0.8
1994-01-05 12:00:00,2.0,2.0,15.5,0.7
1994-01-05 15:00:00,2.1,2.1,16.0,0.7
1994-01-05 18:00:00,1.6,1.6,15.6,0.8
1994-01-05 21:00:00,1.9,1.9,14.7,0.7
1994-01-06 00:00:00,1.8,1.8,15.2,0.7
1994-01-06 03:00:00,1.6,1.6,15.1,0.7
1994-01-06 06:00:00,1.7,1.7,14.9,0.7
1994-01-06 09:00:00,0.6,0.6,15.5,0.7
1994-01-06 12:00:00,1.9,1.9,15.7,0.9
1994-01-06 15:00:00,3.0,3.0,15.6,0.9
1994-01-06 18:00:00,2.8,2.8,15.6,0.8
1994-01-06 21:00:00,0.9,0.9,15.2,0.8
1994-01-07 00:00:00,1.1,1.1,15.1,1.0
1994-01-07 03:00:00,0.5,0.5,14.7,1.1
1994-01-07 06:00:00,0.9,0.9,14.7,1.1
1994-01-07 09:00:00,1.2,1.2,14.3,1.1
1994-01-07 12:00:00,1.0,1.0,14.8,1.1
1994-01-07 15:00:00,1.1,1.1,15.2,1.1
1994-01-07 18:00:00,1.6,1.6,14.8,1.1
1994-01-07 21:00:00,1.3,1.3,14.7,1.1
1994-01-08 00:00:00,1.1,1.1,15.2,1.2
1994-01-08 03:00:00,1.5,1.5,15.4,1.2
1994-01-08 06:00:00,1.1,1.1,16.0,1.2
1994-01-08 09:00:00,0.9,0.9,16.1,1.2
1994-01-08 12:00:00,2.0,2.0,16.9,1.1
1994-01-08 15:00:00,2.5,2.5,17.1,1.1
1994-01-08 18:00:00,9.6,9.6,18.6,1.3
1994-01-08 21:00:00,8.2,8.2,17.8,1.9
1994-01-09 00:00:00,8.3,8.3,18.1,1.4
1994-01-09 03:00:00,7.3,7.3,18.3,1.9
1994-01-09 06:00:00,4.3,4.3,17.7,2.0
1994-01-09 09:00:00,4.4,4.4,18.1,1.7
1994-01-09 12:00:00,4.9,4.9,17.9,2.1
1994-01-09 15:00:00,8.6,8.4,19.3,10.6
1994-01-09 18:00:00,6.5,6.4,18.8,9.0
1994-01-09 21:00:00,7.6,7.5,19.2,5.4
1994-01-10 00:00:00,7.8,7.7,18.8,6.9
1994-01-10 03:00:00,7.6,7.6,20.0,3.0
1994-01-10 06:00:00,5.4,5.4,19.0,0.9
1994-01-10 09:00:00,3.7,3.7,18.2,1.1
1994-01-10 12:00:00,1.8,1.8,16.7,0.9
1994-01-10 15:00:00,1.7,1.7,16.7,0.9
1994-01-10 18:00:00,1.6,1.6,16.9,0.8
1994-01-10 21:00:00,2.8,2.8,16.5,0.8
1994-01-11 00:00:00,3.3,3.3,16.9,0.8
1994-01-11 03:00:00,2.1,2.1,15.9,0.8
1994-01-11 06:00:00,2.2,2.2,15.6,0.8
1994-01-11 09:00:00,2.3,2.3,15.5,0.8
1994-01-11 12:00:00,2.1,2.1,15.3,0.8
1994-01-11 15:00:00,2.3,2.3,15.6,0.8
1994-01-11 18:00:00,1.7,1.7,15.5,0.9
1994-01-11 21:00:00,1.7,1.7,15.7,0.9
1994-01-12 00:00:00,1.6,1.6,16.0,0.9
1994-01-12 03:00:00,1.3,1.3,16.2,0.8
1994-01-12 06:00:00,1.9,1.9,15.3,0.9
1994-01-12 09:00:00,1.9,1.9,14.8,0.9
1994-01-12 12:00:00,2.1,2.1,14.8,0.9
1994-01-12 15:00:00,2.7,2.7,15.1,1.0
1994-01-12 18:00:00,3.5,3.5,17.1,1.6
1994-01-12 21:00:00,1.3,1.3,17.5,1.0
1994-01-13 00:00:00,2.1,2.1,17.4,1.0
1994-01-13 03:00:00,1.0,1.0,17.8,0.9
1994-01-13 06:00:00,1.0,1.0,17.8,0.9
1994-01-13 09:00:00,1.7,1.7,17.2,1.0
1994-01-13 12:00:00,1.4,1.4,17.3,1.0
1994-01-13 15:00:00,1.5,1.5,17.6,1.0
1994-01-13 18:00:00,1.5,1.5,18.1,1.0
1994-01-13 21:00:00,1.3,1.3,17.4,1.0
1994-01-14 00:00:00,1.6,1.6,16.9,1.0
1994-01-14 03:00:00,1.0,1.0,16.6,1.0
1994-01-14 06:00:00,0.5,0.5,16.8,1.1
1994-01-14 09:00:00,0.5,0.5,15.9,1.2
1994-01-14 12:00:00,1.2,1.2,15.7,1.1
1994-01-14 15:00:00,1.1,1.1,15.8,1.1
1994-01-14 18:00:00,7.4,7.4,18.1,1.0
1994-01-14 21:00:00,7.7,7.7,18.3,0.9
1994-01-15 00:00:00,6.9,6.9,18.0,0.9
1994-01-15 03:00:00,3.1,3.1,17.5,0.9
1994-01-15 06:00:00,1.0,1.0,15.9,1.0
1994-01-15 09:00:00,0.9,0.9,15.6,0.9
1994-01-15 12:00:00,0.8,0.8,14.9,1.1
1994-01-15 15:00:00,4.3,4.3,15.2,1.1
1994-01-15 18:00:00,3.6,3.6,15.6,0.9
1994-01-15 21:00:00,3.5,3.5,15.3,0.8
1994-01-16 00:00:00,4.6,4.6,15.3,0.8
1994-01-16 03:00:00,5.7,5.7,15.7,0.8
1994-01-16 06:00:00,3.8,3.8,15.4,0.8
1994-01-16 09:00:00,1.7,1.7,15.2,0.8
1994-01-16 12:00:00,4.4,4.4,16.1,0.9
1994-01-16 15:00:00,2.6,2.6,15.5,0.9
1994-01-16 18:00:00,4.3,4.3,16.7,1.1
1994-01-16 21:00:00,5.7,5.7,17.0,0.8
1994-01-17 00:00:00,6.2,6.2,16.7,0.9
1994-01-17 03:00:00,6.3,6.3,16.9,0.8
1994-01-17 06:00:00,4.4,4.4,16.0,0.9
1994-01-17 09:00:00,3.1,3.1,15.2,0.8
1994-01-17 12:00:00,2.0,2.0,14.5,0.8
1994-01-17 15:00:00,1.5,1.5,14.8,0.8
1994-01-17 18:00:00,1.2,1.2,15.1,0.8
1994-01-17 21:00:00,4.3,4.3,15.2,0.8
1994-01-18 00:00:00,5.9,5.9,15.4,0.8
1994-01-18 03:00:00,6.5,6.5,17.0,1.9
1994-01-18 06:00:00,7.1,7.1,16.6,2.0
1994-01-18 09:00:00,5.7,5.7,16.5,1.0
1994-01-18 12:00:00,4.6,4.6,16.8,0.9
1994-01-18 15:00:00,3.4,3.4,17.0,0.8
1994-01-18 18:00:00,1.1,1.1,16.1,0.9
1994-01-18 21:00:00,1.4,1.4,15.6,1.0
1994-01-19 00:00:00,2.0,2.0,14.9,1.0
1994-01-19 03:00:00,2.0,2.0,14.0,0.9
1994-01-19 06:00:00,2.2,2.2,14.8,0.9
1994-01-19 09:00:00,2.1,2.1,14.6,0.9
1994-01-19 12:00:00,2.5,2.5,14.7,0.9
1994-01-19 15:00:00,2.1,2.1,15.1,0.9
1994-01-19 18:00:00,1.5,1.5,15.3,0.8
1994-01-19 21:00:00,0.8,0.8,15.0,1.0
1994-01-20 00:00:00,0.9,0.9,14.8,1.0
1994-01-20 03:00:00,1.5,1.5,14.7,1.0
1994-01-20 06:00:00,3.6,3.6,17.0,1.7
1994-01-20 09:00:00,1.7,1.7,17.9,1.0
1994-01-20 12:00:00,1.9,1.9,16.9,0.9
1994-01-20 15:00:00,2.4,2.4,16.9,1.0
1994-01-20 18:00:00,3.9,3.9,18.8,0.9
1994-01-20 21:00:00,3.1,3.1,18.6,0.8
1994-01-21 00:00:00,4.3,4.3,18.5,0.8
1994-01-21 03:00:00,1.9,1.9,17.3,0.8
1994-01-21 06:00:00,1.7,1.7,17.6,0.8
1994-01-21 09:00:00,1.2,1.2,17.3,0.9
1994-01-21 12:00:00,1.1,1.1,17.9,0.9
1994-01-21 15:00:00,3.0,3.0,18.2,1.6
1994-01-21 18:00:00,7.6,7.6,19.9,2.7
1994-01-21 21:00:00,8.3,8.3,19.2,2.4
1994-01-22 00:00:00,5.9,5.9,18.8,2.0
1994-01-22 03:00:00,4.9,4.9,19.3,2.7
1994-01-22 06:00:00,5.1,5.1,18.8,2.2
1994-01-22 09:00:00,5.2,5.2,18.1,1.8
1994-01-22 12:00:00,4.7,4.7,17.6,1.4
1994-01-22 15:00:00,5.2,5.2,18.5,3.1
1994-01-22 18:00:00,4.6,4.6,17.4,1.7
1994-01-22 21:00:00,4.5,4.5,18.0,2.2
1994-01-23 00:00:00,4.4,4.4,17.7,1.7
1994-01-23 03:00:00,3.5,3.5,17.3,1.1
1994-01-23 06:00:00,6.6,6.6,17.1,1.0
1994-01-23 09:00:00,6.0,6.0,16.8,0.9
1994-01-23 12:00:00,4.1,4.1,16.9,0.9
1994-01-23 15:00:00,3.8,3.8,16.7,0.9
1994-01-23 18:00:00,1.8,1.8,15.2,0.8
1994-01-23 21:00:00,2.1,2.1,14.8,0.8
1994-01-24 00:00:00,2.4,2.4,14.8,0.8
1994-01-24 03:00:00,2.3,2.3,14.9,0.8
1994-01-24 06:00:00,2.0,2.0,15.0,0.8
1994-01-24 09:00:00,2.1,2.1,15.0,0.8
1994-01-24 12:00:00,1.6,1.6,15.5,0.8
1994-01-24 15:00:00,1.7,1.7,15.6,0.8
1994-01-24 18:00:00,1.7,1.7,15.5,0.8
1994-01-24 21:00:00,2.9,2.9,16.2,0.9
1994-01-25 00:00:00,1.9,1.9,16.1,0.9
1994-01-25 03:00:00,2.1,2.1,15.4,0.8
1994-01-25 06:00:00,2.0,2.0,15.5,0.8
1994-01-25 09:00:00,1.8,1.8,15.8,0.8
1994-01-25 12:00:00,1.5,1.5,16.1,0.7
1994-01-25 15:00:00,2.0,2.0,15.7,0.8
1994-01-25 18:00:00,1.8,1.8,15.4,0.8
1994-01-25 21:00:00,1.9,1.9,14.9,0.7
1994-01-26 00:00:00,2.2,2.2,14.5,0.8
1994-01-26 03:00:00,2.5,2.5,14.3,0.7
1994-01-26 06:00:00,2.4,2.4,14.4,0.7
1994-01-26 09:00:00,2.3,2.3,14.5,0.7
1994-01-26 12:00:00,2.4,2.4,14.8,0.8
1994-01-26 15:00:00,2.5,2.5,14.3,0.7
1994-01-26 18:00:00,2.3,2.3,14.2,0.7
1994-01-26 21:00:00,2.3,2.3,14.2,0.7
1994-01-27 00:00:00,2.3,2.3,14.2,0.7
1994-01-27 03:00:00,2.0,2.0,14.1,0.6
1994-01-27 06:00:00,2.2,2.2,13.8,0.6
1994-01-27 09:00:00,2.5,2.5,13.2,0.7
1994-01-27 12:00:00,2.3,2.3,13.2,0.6
1994-01-27 15:00:00,2.1,2.1,12.7,0.7
1994-01-27 18:00:00,1.7,1.7,12.1,0.8
1994-01-27 21:00:00,2.1,2.1,12.1,0.8
1994-01-28 00:00:00,2.2,2.2,11.4,0.8
1994-01-28 03:00:00,2.2,2.2,12.7,0.9
1994-01-28 06:00:00,2.0,2.0,13.4,0.7
1994-01-28 09:00:00,1.8,1.8,12.3,0.8
1994-01-28 12:00:00,2.0,2.0,13.1,0.9
1994-01-28 15:00:00,2.6,2.6,13.5,0.7
1994-01-28 18:00:00,3.3,3.3,14.3,0.7
1994-01-28 21:00:00,2.1,2.1,13.9,0.8
1994-01-29 00:00:00,1.8,1.8,13.2,0.8
1994-01-29 03:00:00,2.4,2.4,13.0,0.7
1994-01-29 06:00:00,4.0,4.0,14.5,1.1
1994-01-29 09:00:00,5.5,5.5,16.1,0.8
1994-01-29 12:00:00,6.0,5.9,16.8,0.9
1994-01-29 15:00:00,5.6,5.6,17.2,1.0
1994-01-29 18:00:00,5.8,5.8,17.1,0.8
1994-01-29 21:00:00,3.8,3.8,17.0,0.8
1994-01-30 00:00:00,1.8,1.8,16.4,0.9
1994-01-30 03:00:00,1.3,1.3,15.2,1.0
1994-01-30 06:00:00,2.3,2.3,14.7,0.8
1994-01-30 09:00:00,1.4,1.4,14.6,0.8
1994-01-30 12:00:00,0.9,0.9,14.4,0.8
1994-01-30 15:00:00,4.4,4.4,14.2,1.0
1994-01-30 18:00:00,3.3,3.3,14.2,0.9
1994-01-30 21:00:00,4.0,4.0,14.3,0.9
1994-01-31 00:00:00,1.4,1.4,14.6,0.9
1994-01-31 03:00:00,1.1,1.1,14.6,0.9
1994-01-31 06:00:00,0.9,0.9,14.7,0.9
1994-01-31 09:00:00,1.0,1.0,14.7,1.0
1994-01-31 12:00:00,1.2,1.2,15.1,1.0
1994-01-31 15:00:00,2.2,2.2,16.1,1.1
1994-01-31 18:00:00,4.4,4.4,17.1,1.0
1994-01-31 21:00:00,3.9,3.9,17.0,1.0
1994-02-01 00:00:00,2.1,2.1,15.9,0.8
1994-02-01 03:00:00,2.4,2.4,15.5,0.8
1994-02-01 06:00:00,1.9,1.9,14.9,0.8
1994-02-01 09:00:00,2.3,2.3,15.0,0.8
1994-02-01 12:00:00,2.1,2.1,16.1,1.0
1994-02-01 15:00:00,2.5,2.5,15.0,0.8
1994-02-01 18:00:00,2.6,2.6,15.1,0.7
1994-02-01 21:00:00,2.3,2.3,15.2,0.7
1994-02-02 00:00:00,2.3,2.3,14.8,0.7
1994-02-02 03:00:00,2.2,2.2,14.7,0.7
1994-02-02 06:00:00,2.2,2.2,13.7,0.7
1994-02-02 09:00:00,2.1,2.1,13.9,0.8
1994-02-02 12:00:00,1.7,1.7,14.7,0.8
1994-02-02 15:00:00,1.7,1.7,13.3,0.9
1994-02-02 18:00:00,1.6,1.6,12.8,0.7
1994-02-02 21:00:00,2.0,2.0,12.5,0.7
1994-02-03 00:00:00,1.7,1.7,11.8,0.7
1994-02-03 03:00:00,1.8,1.8,11.6,0.7
1994-02-03 06:00:00,2.0,2.0,11.5,0.7
1994-02-03 09:00:00,2.0,2.0,12.2,0.8
1994-02-03 12:00:00,1.4,1.4,14.5,1.0
1994-02-03 15:00:00,2.2,2.2,14.1,0.7
1994-02-03 18:00:00,2.4,2.4,14.5,0.8
1994-02-03 21:00:00,3.2,3.2,17.0,1.4
1994-02-04 00:00:00,2.1,2.1,17.1,0.8
1994-02-04 03:00:00,3.3,3.3,17.9,1.0
1994-02-04 06:00:00,2.8,2.8,17.4,1.4
1994-02-04 09:00:00,0.9,0.9,15.7,0.8
1994-02-04 12:00:00,1.0,1.0,16.0,0.9
1994-02-04 15:00:00,2.2,2.2,15.8,0.9
1994-02-04 18:00:00,1.9,1.9,14.9,0.9
1994-02-04 21:00:00,1.7,1.7,14.0,0.9
1994-02-05 00:00:00,1.8,1.8,13.9,0.9
1994-02-05 03:00:00,2.0,2.0,13.7,0.8
1994-02-05 06:00:00,2.1,2.1,13.5,0.8
1994-02-05 09:00:00,2.2,2.2,13.7,0.8
1994-02-05 12:00:00,2.2,2.2,15.2,1.1
1994-02-05 15:00:00,2.7,2.7,15.7,1.1
1994-02-05 18:00:00,5.3,5.3,17.3,1.0
1994-02-05 21:00:00,4.8,4.8,17.4,0.8
1994-02-06 00:00:00,2.0,2.0,16.6,0.8
1994-02-06 03:00:00,2.2,2.2,16.2,0.8
1994-02-06 06:00:00,1.9,1.9,15.9,0.8
1994-02-06 09:00:00,2.0,2.0,15.6,0.8
1994-02-06 12:00:00,2.1,2.1,16.2,1.1
1994-02-06 15:00:00,2.6,2.6,16.2,0.9
1994-02-06 18:00:00,2.0,2.0,16.9,0.8
1994-02-06 21:00:00,1.4,1.4,17.0,0.8
1994-02-07 00:00:00,2.5,2.5,17.1,0.9
1994-02-07 03:00:00,2.3,2.3,17.3,0.8
1994-02-07 06:00:00,1.9,1.9,17.0,0.8
1994-02-07 09:00:00,1.3,1.3,16.1,0.9
1994-02-07 12:00:00,2.2,2.2,17.2,1.2
1994-02-07 15:00:00,1.9,1.9,16.6,0.9
1994-02-07 18:00:00,2.1,2.1,15.5,0.8
1994-02-07 21:00:00,2.2,2.2,15.8,0.8
1994-02-08 00:00:00,1.6,1.6,16.1,0.9
1994-02-08 03:00:00,1.5,1.5,16.6,0.9
1994-02-08 06:00:00,1.5,1.5,16.6,0.9
1994-02-08 09:00:00,1.8,1.8,16.9,0.9
1994-02-08 12:00:00,1.4,1.4,17.6,1.2
1994-02-08 15:00:00,1.6,1.6,18.0,1.0
1994-02-08 18:00:00,1.8,1.8,17.0,0.9
1994-02-08 21:00:00,1.7,1.7,18.0,0.9
1994-02-09 00:00:00,1.3,1.3,18.0,0.9
1994-02-09 03:00:00,1.6,1.6,17.0,0.9
1994-02-09 06:00:00,1.4,1.4,16.7,0.9
1994-02-09 09:00:00,1.3,1.3,15.1,1.1
1994-02-09 12:00:00,0.8,0.8,15.3,1.2
1994-02-09 15:00:00,0.2,0.2,16.0,1.3
1994-02-09 18:00:00,0.2,0.2,14.6,1.5
1994-02-09 21:00:00,0.2,0.2,14.0,1.4
1994-02-10 00:00:00,0.2,0.2,14.1,1.6
1994-02-10 03:00:00,0.2,0.2,13.4,1.6
1994-02-10 06:00:00,0.2,0.2,12.7,1.6
1994-02-10 09:00:00,0.2,0.2,12.2,1.6
1994-02-10 12:00:00,0.2,0.2,13.3,1.6
1994-02-10 15:00:00,0.2,0.2,13.9,1.3
1994-02-10 18:00:00,0.2,0.2,13.8,0.7
1994-02-10 21:00:00,0.2,0.2,13.7,0.7
1994-02-11 00:00:00,0.2,0.2,13.9,0.7
1994-02-11 03:00:00,0.2,0.2,14.4,0.9
1994-02-11 06:00:00,0.2,0.2,14.1,0.9
1994-02-11 09:00:00,0.2,0.2,15.4,1.0
1994-02-11 12:00:00,1.0,1.0,17.2,0.9
1994-02-11 15:00:00,2.6,2.6,18.6,0.8
1994-02-11 18:00:00,2.4,2.4,18.1,0.7
1994-02-11 21:00:00,2.5,2.5,17.8,0.6
1994-02-12 00:00:00,5.2,5.2,18.7,0.6
1994-02-12 03:00:00,2.1,2.1,18.5,0.7
1994-02-12 06:00:00,2.6,2.6,18.5,0.8
1994-02-12 09:00:00,2.4,2.4,18.1,0.7
1994-02-12 12:00:00,2.0,2.0,18.8,0.6
1994-02-12 15:00:00,2.1,2.1,18.5,0.7
1994-02-12 18:00:00,2.3,2.3,17.7,0.5
1994-02-12 21:00:00,2.0,2.0,17.5,0.5
1994-02-13 00:00:00,1.6,1.6,18.7,0.6
1994-02-13 03:00:00,2.1,2.1,19.5,0.7
1994-02-13 06:00:00,4.7,4.7,20.2,0.5
1994-02-13 09:00:00,7.3,7.3,20.3,0.7
1994-02-13 12:00:00,11.5,11.5,20.2,1.0
1994-02-13 15:00:00,13.2,13.1,20.3,3.2
1994-02-13 18:00:00,12.2,12.2,19.9,1.9
1994-02-13 21:00:00,10.8,10.8,20.3,1.4
1994-02-14 00:00:00,12.7,12.6,19.8,2.4
1994-02-14 03:00:00,12.2,12.2,19.5,3.9
1994-02-14 06:00:00,12.6,12.4,19.4,10.2
1994-02-14 09:00:00,11.8,11.7,19.2,9.6
1994-02-14 12:00:00,10.6,10.4,19.2,8.8
1994-02-14 15:00:00,11.0,10.7,19.2,14.6
1994-02-14 18:00:00,15.3,14.1,23.6,23.0
1994-02-14 21:00:00,16.9,13.2,47.5,38.3
1994-02-15 00:00:00,15.9,12.5,49.1,37.4
1994-02-15 03:00:00,16.5,11.9,52.4,42.7
1994-02-15 06:00:00,15.0,11.7,49.8,38.3
1994-02-15 09:00:00,15.0,12.3,50.7,34.5
1994-02-15 12:00:00,17.1,13.5,52.8,37.0
1994-02-15 15:00:00,15.2,13.8,40.5,24.8
1994-02-15 18:00:00,14.3,13.8,36.3,14.2
1994-02-15 21:00:00,11.0,11.0,32.2,3.1
1994-02-16 00:00:00,6.4,6.4,31.3,1.6
1994-02-16 03:00:00,4.5,4.5,30.2,0.7
1994-02-16 06:00:00,1.6,1.6,28.8,0.7
1994-02-16 09:00:00,0.2,0.2,27.1,0.8
1994-02-16 12:00:00,3.9,3.9,29.6,1.0
1994-02-16 15:00:00,9.1,9.0,27.8,2.1
1994-02-16 18:00:00,11.1,11.1,27.0,5.4
1994-02-16 21:00:00,11.3,11.2,27.0,5.1
1994-02-17 00:00:00,7.0,7.0,27.1,1.1
1994-02-17 03:00:00,7.4,7.4,26.7,0.8
1994-02-17 06:00:00,7.3,7.3,26.4,0.9
1994-02-17 09:00:00,7.6,7.6,26.2,1.2
1994-02-17 12:00:00,8.4,8.4,26.6,1.0
1994-02-17 15:00:00,10.7,10.7,26.4,1.4
1994-02-17 18:00:00,7.4,7.4,25.8,0.9
1994-02-17 21:00:00,7.4,7.4,25.4,1.0
1994-02-18 00:00:00,4.6,4.6,25.2,0.9
1994-02-18 03:00:00,9.9,9.9,24.7,1.6
1994-02-18 06:00:00,6.0,5.9,24.7,2.2
1994-02-18 09:00:00,6.2,6.2,24.6,2.7
1994-02-18 12:00:00,8.0,7.9,24.7,7.1
1994-02-18 15:00:00,9.1,9.0,24.4,8.2
1994-02-18 18:00:00,12.3,12.2,23.9,8.4
1994-02-18 21:00:00,13.2,13.1,23.7,5.7
1994-02-19 00:00:00,10.2,10.2,23.9,3.7
1994-02-19 03:00:00,5.7,5.7,23.1,1.0
1994-02-19 06:00:00,10.9,10.9,23.3,1.6
1994-02-19 09:00:00,6.2,6.2,23.6,3.1
1994-02-19 12:00:00,1.6,1.6,23.0,1.0
1994-02-19 15:00:00,3.5,3.5,24.3,0.9
1994-02-19 18:00:00,4.2,4.2,23.8,0.9
1994-02-19 21:00:00,4.1,4.1,23.5,0.9
1994-02-20 00:00:00,8.1,8.0,23.6,2.1
1994-02-20 03:00:00,8.2,8.2,23.8,2.0
1994-02-20 06:00:00,6.5,6.5,24.0,1.3
1994-02-20 09:00:00,4.7,4.7,24.0,0.9
1994-02-20 12:00:00,8.9,8.9,23.9,1.4
1994-02-20 15:00:00,10.2,10.2,23.8,1.2
1994-02-20 18:00:00,4.9,4.9,23.6,0.8
1994-02-20 21:00:00,4.9,4.9,23.4,0.8
1994-02-21 00:00:00,4.9,4.9,23.4,0.8
1994-02-21 03:00:00,5.4,5.4,23.0,0.9
1994-02-21 06:00:00,4.3,4.3,22.4,0.8
1994-02-21 09:00:00,3.8,3.8,22.3,0.9
1994-02-21 12:00:00,1.0,1.0,24.5,1.2
1994-02-21 15:00:00,0.7,0.7,24.2,0.8
1994-02-21 18:00:00,0.2,0.2,23.8,1.0
1994-02-21 21:00:00,0.2,0.2,21.6,1.0
1994-02-22 00:00:00,0.2,0.2,20.3,0.9
1994-02-22 03:00:00,0.2,0.2,20.4,0.8
1994-02-22 06:00:00,0.2,0.2,21.5,1.0
1994-02-22 09:00:00,0.2,0.2,21.7,0.8
1994-02-22 12:00:00,0.2,0.2,22.3,1.2
1994-02-22 15:00:00,0.2,0.2,22.9,1.3
1994-02-22 18:00:00,0.2,0.2,21.5,2.1
1994-02-22 21:00:00,0.2,0.2,22.0,1.5
1994-02-23 00:00:00,0.2,0.2,21.7,1.9
1994-02-23 03:00:00,0.2,0.2,21.9,1.2
1994-02-23 06:00:00,0.2,0.2,21.9,1.0
1994-02-23 09:00:00,0.2,0.2,21.7,0.9
1994-02-23 12:00:00,0.2,0.2,22.5,1.0
1994-02-23 15:00:00,0.3,0.3,22.9,2.3
1994-02-23 18:00:00,2.7,2.7,19.1,0.9
1994-02-23 21:00:00,3.8,3.8,20.3,0.8
1994-02-24 00:00:00,4.3,4.3,20.9,1.0
1994-02-24 03:00:00,2.0,2.0,20.6,0.9
1994-02-24 06:00:00,0.7,0.7,19.7,0.8
1994-02-24 09:00:00,0.5,0.5,19.5,0.8
1994-02-24 12:00:00,2.2,2.2,20.2,1.3
1994-02-24 15:00:00,4.4,4.4,19.1,1.1
1994-02-24 18:00:00,2.3,2.3,17.6,0.9
1994-02-24 21:00:00,4.4,4.4,16.4,0.8
1994-02-25 00:00:00,4.0,4.0,16.4,0.7
1994-02-25 03:00:00,2.9,2.9,16.7,1.0
1994-02-25 06:00:00,5.8,5.8,17.2,1.9
1994-02-25 09:00:00,10.5,10.4,16.6,3.9
1994-02-25 12:00:00,10.0,10.0,18.4,2.9
1994-02-25 15:00:00,7.6,7.6,19.4,2.1
1994-02-25 18:00:00,6.2,6.2,19.4,2.5
1994-02-25 21:00:00,8.6,8.6,19.4,3.0
1994-02-26 00:00:00,5.2,5.2,20.0,1.1
1994-02-26 03:00:00,6.4,6.4,20.0,3.5
1994-02-26 06:00:00,7.3,7.3,20.8,1.5
1994-02-26 09:00:00,5.9,5.9,20.0,0.9
1994-02-26 12:00:00,5.2,5.2,21.0,1.1
1994-02-26 15:00:00,5.4,5.4,20.9,1.2
1994-02-26 18:00:00,4.9,4.9,19.1,0.8
1994-02-26 21:00:00,4.3,4.3,18.9,0.8
1994-02-27 00:00:00,4.7,4.7,18.4,0.8
1994-02-27 03:00:00,3.9,3.9,18.4,0.8
1994-02-27 06:00:00,1.4,1.4,17.5,0.8
1994-02-27 09:00:00,1.3,1.3,17.3,0.7
1994-02-27 12:00:00,1.1,1.1,19.3,1.3
1994-02-27 15:00:00,1.7,1.7,16.9,1.6
1994-02-27 18:00:00,2.1,2.1,15.2,0.8
1994-02-27 21:00:00,2.1,2.1,15.7,0.7
1994-02-28 00:00:00,3.9,3.9,16.6,0.9
1994-02-28 03:00:00,2.7,2.7,17.2,0.9
1994-02-28 06:00:00,7.2,7.2,18.3,0.9
1994-02-28 09:00:00,6.2,6.2,18.9,1.0
1994-02-28 12:00:00,7.8,7.8,20.4,1.0
1994-02-28 15:00:00,8.9,8.9,19.4,2.1
1994-02-28 18:00:00,11.8,11.8,18.5,3.7
1994-02-28 21:00:00,11.2,11.2,18.9,3.2
1994-03-01 00:00:00,10.3,10.2,19.1,2.9
1994-03-01 03:00:00,7.1,7.1,19.7,1.2
1994-03-01 06:00:00,7.3,7.3,19.7,2.1
1994-03-01 09:00:00,9.8,9.8,19.2,4.5
1994-03-01 12:00:00,14.4,14.3,19.5,6.0
1994-03-01 15:00:00,14.5,14.3,15.6,7.8
1994-03-01 18:00:00,12.2,12.2,14.2,4.8
1994-03-01 21:00:00,8.3,8.3,17.9,2.7
1994-03-02 00:00:00,4.1,4.1,18.4,0.8
1994-03-02 03:00:00,2.0,2.0,18.0,0.9
1994-03-02 06:00:00,1.9,1.9,17.2,0.8
1994-03-02 09:00:00,1.9,1.9,17.4,0.8
1994-03-02 12:00:00,0.6,0.6,19.7,0.8
1994-03-02 15:00:00,0.2,0.2,17.1,1.2
1994-03-02 18:00:00,0.2,0.2,14.9,0.9
1994-03-02 21:00:00,0.2,0.2,15.9,0.8
1994-03-03 00:00:00,0.2,0.2,16.5,0.9
1994-03-03 03:00:00,0.2,0.2,17.7,0.9
1994-03-03 06:00:00,0.2,0.2,16.8,0.9
1994-03-03 09:00:00,0.2,0.2,16.0,1.0
1994-03-03 12:00:00,0.2,0.2,17.8,1.2
1994-03-03 15:00:00,0.2,0.2,15.0,1.0
1994-03-03 18:00:00,0.2,0.2,14.0,0.8
1994-03-03 21:00:00,0.2,0.2,14.1,0.8
1994-03-04 00:00:00,0.2,0.2,14.1,0.8
1994-03-04 03:00:00,0.2,0.2,14.2,0.9
1994-03-04 06:00:00,0.2,0.2,14.7,0.9
1994-03-04 09:00:00,0.2,0.2,15.0,0.9
1994-03-04 12:00:00,0.2,0.2,16.3,1.0
1994-03-04 15:00:00,3.2,3.2,19.3,0.9
1994-03-04 18:00:00,5.9,5.9,19.8,0.8
1994-03-04 21:00:00,6.1,6.1,20.2,0.8
1994-03-05 00:00:00,3.6,3.6,20.5,0.9
1994-03-05 03:00:00,1.7,1.7,19.0,0.7
1994-03-05 06:00:00,2.3,2.3,19.4,0.9
1994-03-05 09:00:00,3.5,3.5,18.2,0.9
1994-03-05 12:00:00,5.5,5.5,18.5,1.1
1994-03-05 15:00:00,1.3,1.3,19.8,1.0
1994-03-05 18:00:00,1.4,1.4,19.4,0.9
1994-03-05 21:00:00,1.3,1.3,19.4,1.0
1994-03-06 00:00:00,4.0,4.0,20.0,1.1
1994-03-06 03:00:00,5.4,5.4,20.2,1.2
1994-03-06 06:00:00,3.2,3.2,20.4,1.3
1994-03-06 09:00:00,3.9,3.9,20.5,1.3
1994-03-06 12:00:00,0.9,0.9,21.3,1.3
1994-03-06 15:00:00,1.3,1.3,21.8,1.1
1994-03-06 18:00:00,3.0,3.0,21.0,1.0
1994-03-06 21:00:00,1.9,1.9,20.1,1.0
1994-03-07 00:00:00,1.3,1.3,18.7,0.9
1994-03-07 03:00:00,1.6,1.6,17.8,0.9
1994-03-07 06:00:00,1.8,1.8,17.2,0.9
1994-03-07 09:00:00,2.1,2.1,18.1,1.4
1994-03-07 12:00:00,2.0,2.0,20.2,0.9
1994-03-07 15:00:00,4.3,4.3,20.1,1.1
1994-03-07 18:00:00,4.5,4.5,18.1,0.8
1994-03-07 21:00:00,3.5,3.5,18.7,0.8
1994-03-08 00:00:00,2.9,2.9,19.1,0.8
1994-03-08 03:00:00,1.8,1.8,19.2,0.8
1994-03-08 06:00:00,1.4,1.4,18.6,1.0
1994-03-08 09:00:00,2.3,2.3,18.9,1.1
1994-03-08 12:00:00,1.1,1.1,19.4,1.1
1994-03-08 15:00:00,2.2,2.2,20.6,1.1
1994-03-08 18:00:00,8.9,8.9,20.4,1.3
1994-03-08 21:00:00,5.2,5.2,20.0,1.0
1994-03-09 00:00:00,5.9,5.9,19.6,0.9
1994-03-09 03:00:00,2.2,2.2,18.5,0.8
1994-03-09 06:00:00,2.1,2.1,19.3,0.9
1994-03-09 09:00:00,1.4,1.4,18.9,0.9
1994-03-09 12:00:00,6.1,6.1,20.8,1.8
1994-03-09 15:00:00,11.5,11.5,20.3,2.3
1994-03-09 18:00:00,7.4,7.4,19.6,2.5
1994-03-09 21:00:00,5.1,5.1,19.4,1.0
1994-03-10 00:00:00,3.8,3.8,19.5,0.8
1994-03-10 03:00:00,5.1,5.1,20.1,0.8
1994-03-10 06:00:00,4.6,4.6,20.5,1.1
1994-03-10 09:00:00,5.1,5.1,20.7,0.9
1994-03-10 12:00:00,4.3,4.3,22.8,1.1
1994-03-10 15:00:00,4.3,4.3,21.9,1.1
1994-03-10 18:00:00,3.7,3.7,20.4,0.9
1994-03-10 21:00:00,5.0,5.0,20.2,0.9
1994-03-11 00:00:00,5.9,5.9,20.3,1.1
1994-03-11 03:00:00,7.6,7.6,19.5,2.5
1994-03-11 06:00:00,5.9,5.9,19.6,0.9
1994-03-11 09:00:00,3.5,3.5,20.9,1.3
1994-03-11 12:00:00,6.1,6.1,21.1,0.9
1994-03-11 15:00:00,3.2,3.2,21.3,0.9
1994-03-11 18:00:00,1.1,1.1,19.4,0.9
1994-03-11 21:00:00,3.3,3.3,19.9,1.2
1994-03-12 00:00:00,6.0,6.0,20.4,1.0
1994-03-12 03:00:00,6.6,6.6,20.6,1.2
1994-03-12 06:00:00,6.7,6.7,20.3,1.3
1994-03-12 09:00:00,3.6,3.6,20.6,1.0
1994-03-12 12:00:00,1.9,1.9,21.9,1.1
1994-03-12 15:00:00,1.5,1.5,20.1,1.2
1994-03-12 18:00:00,1.8,1.8,17.4,0.9
1994-03-12 21:00:00,2.2,2.2,17.0,0.8
1994-03-13 00:00:00,2.2,2.2,17.5,0.8
1994-03-13 03:00:00,2.1,2.1,17.9,0.8
1994-03-13 06:00:00,1.8,1.8,17.9,0.8
1994-03-13 09:00:00,1.7,1.7,19.1,1.8
1994-03-13 12:00:00,2.4,2.4,21.8,1.0
1994-03-13 15:00:00,1.6,1.6,18.8,1.6
1994-03-13 18:00:00,2.2,2.2,16.4,0.8
1994-03-13 21:00:00,1.9,1.9,16.6,0.8
1994-03-14 00:00:00,1.9,1.9,16.7,0.8
1994-03-14 03:00:00,1.8,1.8,17.0,0.9
1994-03-14 06:00:00,1.6,1.6,16.5,0.8
1994-03-14 09:00:00,1.9,1.9,17.1,1.1
1994-03-14 12:00:00,1.3,1.3,19.7,1.0
1994-03-14 15:00:00,1.2,1.2,21.3,1.8
1994-03-14 18:00:00,0.8,0.8,18.4,0.9
1994-03-14 21:00:00,0.6,0.6,17.9,0.9
1994-03-15 00:00:00,1.2,1.2,17.8,0.9
1994-03-15 03:00:00,0.7,0.7,18.1,0.9
1994-03-15 06:00:00,1.3,1.3,17.3,1.0
1994-03-15 09:00:00,1.6,1.6,17.3,1.0
1994-03-15 12:00:00,1.2,1.2,19.7,0.9
1994-03-15 15:00:00,0.9,0.9,20.4,0.9
1994-03-15 18:00:00,3.3,3.3,19.0,0.9
1994-03-15 21:00:00,4.4,4.4,18.4,0.8
1994-03-16 00:00:00,3.6,3.6,18.1,0.9
1994-03-16 03:00:00,4.6,4.6,18.4,0.8
1994-03-16 06:00:00,3.9,3.9,18.6,0.8
1994-03-16 09:00:00,2.4,2.4,19.2,1.1
1994-03-16 12:00:00,4.4,4.4,21.3,1.3
1994-03-16 15:00:00,6.3,6.3,20.5,0.9
1994-03-16 18:00:00,4.9,4.9,19.4,0.9
1994-03-16 21:00:00,2.3,2.3,17.4,0.9
1994-03-17 00:00:00,1.9,1.9,16.7,0.9
1994-03-17 03:00:00,1.7,1.7,16.4,0.7
1994-03-17 06:00:00,2.3,2.3,15.8,0.8
1994-03-17 09:00:00,2.1,2.1,16.5,1.1
1994-03-17 12:00:00,1.4,1.4,19.6,1.0
1994-03-17 15:00:00,1.1,1.1,19.3,1.0
1994-03-17 18:00:00,0.8,0.8,18.4,1.1
1994-03-17 21:00:00,1.2,1.2,17.2,0.9
1994-03-18 00:00:00,1.2,1.2,16.3,1.0
1994-03-18 03:00:00,1.3,1.3,16.6,1.0
1994-03-18 06:00:00,5.2,5.2,18.3,0.9
1994-03-18 09:00:00,3.5,3.5,18.4,0.9
1994-03-18 12:00:00,1.5,1.5,18.8,1.1
1994-03-18 15:00:00,0.9,0.9,17.1,1.3
1994-03-18 18:00:00,1.1,1.1,15.9,1.0
1994-03-18 21:00:00,2.4,2.4,15.3,0.8
1994-03-19 00:00:00,2.3,2.3,14.4,0.8
1994-03-19 03:00:00,2.0,2.0,13.8,0.8
1994-03-19 06:00:00,1.9,1.9,13.6,0.8
1994-03-19 09:00:00,1.8,1.8,14.5,1.0
1994-03-19 12:00:00,1.5,1.5,16.6,1.0
1994-03-19 15:00:00,0.8,0.8,16.4,0.8
1994-03-19 18:00:00,0.7,0.7,15.9,1.0
1994-03-19 21:00:00,2.4,2.4,15.8,1.1
1994-03-20 00:00:00,2.3,2.3,16.1,1.0
1994-03-20 03:00:00,1.7,1.7,16.1,0.9
1994-03-20 06:00:00,2.1,2.1,16.5,0.9
1994-03-20 09:00:00,1.6,1.6,17.2,1.4
1994-03-20 12:00:00,1.7,1.7,18.7,1.1
1994-03-20 15:00:00,3.2,3.2,17.1,1.1
1994-03-20 18:00:00,4.4,4.4,16.6,1.1
1994-03-20 21:00:00,8.9,8.9,16.4,1.7
1994-03-21 00:00:00,8.8,8.8,16.5,1.2
1994-03-21 03:00:00,7.0,7.0,17.0,1.2
1994-03-21 06:00:00,8.3,8.3,17.1,1.6
1994-03-21 09:00:00,7.2,7.2,17.2,1.6
1994-03-21 12:00:00,6.7,6.7,18.5,1.2
1994-03-21 15:00:00,6.1,6.1,18.5,1.0
1994-03-21 18:00:00,4.7,4.7,17.7,1.0
1994-03-21 21:00:00,5.8,5.8,17.5,0.9
1994-03-22 00:00:00,4.4,4.4,17.3,0.9
1994-03-22 03:00:00,6.4,6.4,17.2,0.9
1994-03-22 06:00:00,3.2,3.2,16.9,1.0
1994-03-22 09:00:00,1.9,1.9,16.7,1.7
1994-03-22 12:00:00,1.7,1.7,18.0,1.0
1994-03-22 15:00:00,1.3,1.3,16.7,1.2
1994-03-22 18:00:00,1.8,1.8,14.4,0.9